sat.trackr.live / text

‹ back to catalog

STARLINK-30435

NORAD 57842 · 2023-141C

PAYLOAD ACTIVE UNKNOWN

§ Identity

Operator
Country
US
Launch date
2023-09-12
Launch site
AFWTR
Launch vehicle
Mass (kg)
RCS (m²)

Purposes: comms

External: N2YO · Heavens-Above · Gunter

§ Orbital elements

Epoch: 2026-05-24T15:08:32.689824Z

Period
93.99 min
Inclination
53.1616°
Eccentricity
0.0006359
Mean motion
15.32089327 rev/d
Perigee alt
465.2 km
Apogee alt
473.9 km
Semi-major
6,847.7 km
B*
1.5855e-3
RAAN
291.3106°
Arg perigee
113.9188°
Mean anomaly
246.2480°
Rev number
15,195

§ Raw data

STARLINK-304351 57842U 23141C   26144.63093391  .00049793  00000+0  15855-2 0  99952 57842  53.1616 291.3106 0006359 113.9188 246.2480 15.32089327151953

JSON: /api/v1/satellites/57842 · /tle

For live sub-satellite position, see the globe view (requires WebGL).

§ Visibility from observer

Set your observer location to see the next 7 days of passes ≥ 10°. The values pass through the URL so the page stays shareable.

No JS? Fill the form by hand. The geolocation button needs JavaScript.